Augusta Bush, GA

1:12 PM EDT on August 21, 2017 (GMT -0400)
Augusta Regional At Bush

Weather History for KAGS - March, 2014

Change the Weather History Date:

Monday, March 24, 2014

  Actual Average Record
Temperature  
Mean Temperature 49 °F 58 °F  
Max Temperature 61 °F 72 °F 92 °F (1929)
Min Temperature 37 °F 44 °F 26 °F (1885)
Degree Days  
Heating Degree Days 16 8  
Month to date heating degree days 314 247  
Since 1 July heating degree days 2476 2279  
Cooling Degree Days 0 1  
Month to date cooling degree days 0 10  
Year to date cooling degree days 2 13  
Moisture  
Dew Point 32 °F    
Average Humidity 59    
Maximum Humidity 92    
Minimum Humidity 25    
Precipitation  
Precipitation 0.00 in 0.12 in 2.06 in (1904)
Month to date precipitation 2.12 3.29  
Year to date precipitation 8.33 11.12  
Sea Level Pressure  
Sea Level Pressure 30.14 in    
Wind  
Wind Speed 6 mph (ENE)    
Max Wind Speed 18 mph    
Max Gust Speed 24 mph    
Visibility 9 miles    
Events      
T = Trace of Precipitation, MM = Missing Value Source: NWS Daily Summary

Daily Weather History Graph

Daily Weather History Graph

Search for Another Location

Airport or City:

Trip Planner

Search our weather history database for the weather conditions in past years. The results will help you decide how hot, cold, wet, or windy it might be!

Date:

Astronomy

Mar. 24, 2014 Rise Set
Actual Time 7:26 AM EDT 7:42 PM EDT
Civil Twilight 7:01 AM EDT 8:07 PM EDT
Nautical Twilight 6:32 AM EDT 8:36 PM EDT
Astronomical Twilight 6:03 AM EDT 9:05 PM EDT
Moon 2:38 AM EDT (3/24) 1:22 PM EDT (3/24)
Length of Visible Light 13h 05m
Length of Day
12h 16m
Last Quarter, 43% of the Moon is Illuminated
Mar 24
Last Quarter
Mar 30
New
Apr 7
First Quarter
Apr 15
Full
Apr 22
Last Quarter

Hourly Weather History & Observations

Time (EDT) Temp. Windchill Dew Point Humidity Pressure Visibility Wind Dir Wind Speed Gust Speed Precip Events Conditions
12:53 AM 48.9 °F - 39.9 °F 71% 30.14 in 10.0 mi NE 9.2 mph - N/A   Clear
1:53 AM 46.9 °F - 39.9 °F 77% 30.14 in 10.0 mi NE 4.6 mph - N/A   Clear
2:53 AM 44.1 °F 41.5 °F 37.9 °F 79% 30.15 in 10.0 mi NNE 4.6 mph - N/A   Clear
3:53 AM 39.9 °F 37.8 °F 37.0 °F 89% 30.16 in 10.0 mi NNE 3.5 mph - N/A   Clear
4:53 AM 41.0 °F 38.0 °F 37.9 °F 89% 30.17 in 10.0 mi NNE 4.6 mph - N/A   Clear
5:53 AM 39.0 °F 36.8 °F 36.0 °F 89% 30.19 in 8.0 mi NNE 3.5 mph - N/A   Clear
6:53 AM 37.9 °F 34.4 °F 36.0 °F 93% 30.20 in 6.0 mi NE 4.6 mph - N/A   Clear
7:53 AM 39.0 °F 36.8 °F 36.0 °F 89% 30.22 in 5.0 mi NE 3.5 mph - N/A   Clear
8:53 AM 43.0 °F 36.4 °F 37.0 °F 80% 30.24 in 8.0 mi East 12.7 mph - N/A   Clear
9:53 AM 46.9 °F - 30.0 °F 52% 30.25 in 10.0 mi East 12.7 mph - N/A   Clear
10:53 AM 51.1 °F - 28.0 °F 41% 30.25 in 9.0 mi ENE 12.7 mph 21.9 mph N/A   Clear
11:53 AM 52.0 °F - 27.0 °F 38% 30.25 in - SE 6.9 mph - N/A   Clear
12:53 PM 55.0 °F - 26.1 °F 33% 30.22 in 10.0 mi East 9.2 mph - N/A   Clear
1:53 PM 57.0 °F - 26.1 °F 30% 30.18 in 10.0 mi Calm Calm - N/A   Clear
2:53 PM 57.9 °F - 26.1 °F 30% 30.14 in 10.0 mi Variable 4.6 mph - N/A   Clear
3:53 PM 60.1 °F - 26.1 °F 27% 30.11 in 10.0 mi Variable 5.8 mph - N/A   Clear
4:53 PM 60.1 °F - 25.0 °F 26% 30.08 in 10.0 mi ENE 8.1 mph - N/A   Clear
5:53 PM 59.0 °F - 26.1 °F 28% 30.06 in 10.0 mi Variable 4.6 mph - N/A   Clear
6:53 PM 57.9 °F - 26.1 °F 30% 30.05 in 10.0 mi SE 5.8 mph - N/A   Partly Cloudy
7:53 PM 54.0 °F - 28.0 °F 37% 30.04 in 10.0 mi ESE 5.8 mph - N/A   Clear
8:53 PM 52.0 °F - 28.9 °F 41% 30.04 in 10.0 mi SE 4.6 mph - N/A   Clear
9:53 PM 46.9 °F - 30.0 °F 52% 30.06 in 10.0 mi ESE 4.6 mph - N/A   Clear
10:53 PM 48.0 °F - 34.0 °F 58% 30.05 in 10.0 mi ESE 8.1 mph - N/A   Clear
11:53 PM 46.9 °F - 37.0 °F 68% 30.06 in 10.0 mi SE 9.2 mph - N/A   Partly Cloudy